Hourly Data Report for October 14, 2014

All times are specified in Local Standard Time (LST). Add 1 hour to adjust for Daylight Saving Time where and when it is observed.

KITCHENER/WATERLOO
ONTARIO

43°27'39.000" N
80°22'43.000" W
321.60 m
6144239
71368
YKF

Download Data

Hourly Data (October 2014)
Hourly Data Report for October 14, 2014
Temp Definition
°C
Dew Point Temp Definition
°C
Rel Hum Definition
%
Wind Dir Definition
10's deg

Wind Spd Definition
km/h
Visibility Definition
km
Stn Press Definition
kPa
Hmdx Definition


Wind Chill Definition


Weather Definition


TIME
00:00 Legend Double Dagger 14.7 14.1 96 14 13 4.8 97.57     Fog
01:00
02:00 Legend Double Dagger 14.7 13.9 95 14 15 8.1 97.48     Fog
03:00 Legend Double Dagger 15.2 13.8 91 15 17 16.1 97.40     LegendNANA
04:00 Legend Double Dagger 15.4 13.6 89 15 15 16.1 97.39     LegendNANA
05:00 Legend Double Dagger 14.9 13.5 91 15 17 16.1 97.37     LegendNANA
06:00 Legend Double Dagger 14.6 13.3 92 14 15 16.1 97.34     LegendNANA
07:00 Legend Double Dagger 14.8 13.4 91 14 15 16.1 97.31     LegendNANA
08:00 Legend Double Dagger 15.6 13.8 89 14 15 16.1 97.32     LegendNANA
09:00
10:00 Legend Double Dagger 21.5 16.0 70 17 30 16.1 97.25 26   LegendNANA
11:00 Legend Double Dagger 21.2 15.6 70 18 32 16.1 97.23 26   LegendNANA
12:00 Legend Double Dagger 19.9 16.7 81 16 22 16.1 97.16     Rain
13:00 Legend Double Dagger 20.5 16.8 79 17 28 16.1 97.14 26   Rain
14:00 Legend Double Dagger 20.5 17.4 82 15 21 16.1 97.10 26   Rain
15:00 Legend Double Dagger 19.8 17.5 86 14 15 16.1 97.05     Rain
16:00 Legend Double Dagger 19.5 17.4 88 10 11 16.1 96.97     LegendNANA
17:00
18:00 Legend Double Dagger 19.2 17.2 88 12 13 LegendMM 97.01     Rain
19:00 Legend Double Dagger 18.5 17.0 91 12 13 16.1 97.00     Rain
20:00 Legend Double Dagger 18.2 16.9 92 11 13 16.1 96.99     LegendNANA
21:00 Legend Double Dagger 18.8 17.2 90 13 15 LegendMM 96.98     LegendNANA
22:00 Legend Double Dagger 18.7 16.9 89 11 13 16.1 96.96     LegendNANA
23:00                    

Notes on Data Quality.

Legend

  • E = Estimated
  • M = Missing
  • NA = Not Available
  • ‡ = Partner data that is not subject to review by the National Climate Archives
Date modified: